Home   Weather   Hameln   Past weeks

Flag for Germany Past Weather in Hameln, Lower Saxony, Germany — Yesterday and Last 2 Weeks

Now
48 °F

Cool.


Feels Like: 44 °F
Forecast: 45 / 46 °F
Wind: 10 mph from West

Location: Bueckeburg

Current Time: Dec 10, 2016 at 11:47:35 am

Latest Report: Dec 10, 2016 at 10:20 am


Visibility: N/A

Pressure: 30.18 "Hg

Humidity: 76%

Dew Point: 41 °F

Location of HamelnLocation

Past Weather in Hameln — Graph

°F

Hameln Temperature Yesterday

Maximum temperature yesterday: 52 °F (at 8:20 pm)
Minimum temperature yesterday: 45 °F (at 12:02 am)
Average temperature yesterday: 47 °F

High & Low Weather Summary for the Past Weeks

 TemperatureHumidityPressure
High54 °F (Dec 8, 1:20 pm)100% (Nov 25, 8:20 pm)30.60 "Hg (Nov 25, 8:20 pm)
Low21 °F (Nov 29, 3:20 am)43% (Dec 8, 5:20 pm)30.01 "Hg (Nov 27, 12:20 am)
Average36 °F84%30.31 "Hg
* Reported Nov 25 10:20 am — Dec 10 10:20 am, Hameln, Weather by CustomWeather, © 2016

Note: Actual official high and low records may vary slightly from our data, if they occured in-between our weather recording intervals... More about our weather records

Advertising

Hameln Weather History for the Previous 24 Hours

Scroll right to see more
 ConditionsComfort  
Time TempWeatherWind HumidityBarometerVisibility
10:20 am
Sat, Dec 10
48 °FCool.10 mph76%30.18 "HgN/A
9:20 am48 °FCool.14 mph76%30.15 "HgN/A
8:20 am46 °FCool.12 mph82%30.15 "HgN/A
7:20 am48 °FCool.17 mph76%30.12 "HgN/A
6:20 am48 °FCool.18 mph76%30.15 "HgN/A
5:20 am48 °FCool.15 mph82%30.15 "HgN/A
4:20 am48 °FCool.15 mph76%30.18 "HgN/A
3:20 am48 °FCool.12 mph82%30.21 "HgN/A
2:20 am50 °FCool.13 mph76%30.21 "HgN/A
1:20 am50 °FCool.14 mph76%30.21 "HgN/A
12:20 am50 °FCool.12 mph76%30.24 "HgN/A
11:20 pm
Fri, Dec 9
50 °FCool.14 mph82%30.24 "HgN/A
10:20 pm50 °FCool.14 mph82%30.24 "HgN/A
9:20 pm50 °FCool.10 mph88%30.27 "HgN/A
8:20 pm52 °FCool.13 mph82%30.27 "HgN/A
7:20 pm50 °FFog.9 mph94%30.27 "Hg3 mi
6:20 pm50 °FDrizzle. Fog.10 mph94%30.27 "Hg2 mi
5:20 pm50 °FDrizzle. Fog.12 mph94%30.27 "Hg2 mi
4:20 pm48 °FFog.7 mph100%30.30 "Hg2 mi
3:20 pm48 °FFog.10 mph94%30.30 "Hg2 mi
2:20 pm48 °FFog.12 mph94%30.33 "Hg2 mi
1:20 pm48 °FDrizzle. Fog.8 mph94%30.33 "Hg2 mi
12:20 pm46 °FDrizzle. Fog.13 mph100%30.33 "Hg2 mi
11:20 am46 °FDrizzle. Fog.14 mph100%30.33 "Hg2 mi
Weather by CustomWeather, © 2016

See weather overviewHow to use our weather pages